Wetterdaten: aktuell Sonntag, 27.11.2022 15:40
Datum Zeit Temp. A. Feuchte A. Luftdruck Regen Wind Richtung Richtung Taupunkt Windchill Windben Empfang
27.11.2022 15:40 6,2 C 93 % 1017,8 hPa 0,0 l/m 1,9 km/h (1 Bft) S 170 5,2 C 6,2 C 10,9 km/h (2 Bft) 99 %
27.11.2022 15:30 6,2 C 93 % 1017,9 hPa 0,0 l/m 2,3 km/h (1 Bft) SO 126 5,2 C 6,2 C 13,0 km/h (3 Bft) 100 %
27.11.2022 15:20 6,2 C 93 % 1018,1 hPa 0,0 l/m 1,9 km/h (1 Bft) S 180 5,2 C 6,2 C 8,7 km/h (2 Bft) 100 %
27.11.2022 15:10 6,2 C 93 % 1018,2 hPa 0,0 l/m 3,0 km/h (1 Bft) SO 140 5,2 C 6,2 C 10,9 km/h (2 Bft) 100 %
27.11.2022 15:00 6,2 C 93 % 1018,4 hPa 0,0 l/m 2,5 km/h (1 Bft) S-SO 167 5,2 C 6,2 C 8,7 km/h (2 Bft) 100 %
27.11.2022 14:50 6,2 C 93 % 1018,6 hPa 0,0 l/m 2,5 km/h (1 Bft) S-SO 166 5,2 C 6,2 C 17,4 km/h (3 Bft) 100 %
27.11.2022 14:40 6,2 C 93 % 1018,7 hPa 0,0 l/m 3,1 km/h (1 Bft) SO 128 5,2 C 6,2 C 19,6 km/h (3 Bft) 100 %
27.11.2022 14:30 6,1 C 93 % 1018,8 hPa 0,0 l/m 3,2 km/h (1 Bft) SO 130 5,1 C 6,1 C 17,4 km/h (3 Bft) 99 %
27.11.2022 14:20 6,1 C 93 % 1019,1 hPa 0,0 l/m 3,3 km/h (1 Bft) S-SO 155 5,1 C 6,1 C 17,4 km/h (3 Bft) 99 %
27.11.2022 14:10 6,1 C 93 % 1019,1 hPa 0,2 l/m 3,0 km/h (1 Bft) SO 126 5,1 C 6,1 C 10,9 km/h (2 Bft) 100 %
27.11.2022 14:00 5,9 C 93 % 1019,4 hPa 0,0 l/m 2,5 km/h (1 Bft) SO 129 4,9 C 5,9 C 13,0 km/h (3 Bft) 100 %
27.11.2022 13:50 5,9 C 93 % 1019,5 hPa 0,0 l/m 3,2 km/h (1 Bft) S-SW 207 4,9 C 5,9 C 13,0 km/h (3 Bft) 100 %
27.11.2022 13:40 5,8 C 93 % 1019,6 hPa 0,0 l/m 2,6 km/h (1 Bft) S 180 4,8 C 5,8 C 10,9 km/h (2 Bft) 99 %
27.11.2022 13:30 5,8 C 93 % 1019,7 hPa 0,0 l/m 3,0 km/h (1 Bft) S-SO 165 4,8 C 5,8 C 13,0 km/h (3 Bft) 99 %
27.11.2022 13:20 5,7 C 93 % 1019,9 hPa 0,2 l/m 3,1 km/h (1 Bft) O-SO 111 4,7 C 5,7 C 13,0 km/h (3 Bft) 99 %
27.11.2022 13:10 5,7 C 93 % 1020,1 hPa 0,0 l/m 2,1 km/h (1 Bft) S 178 4,7 C 5,7 C 15,2 km/h (3 Bft) 99 %
27.11.2022 13:00 5,6 C 92 % 1020,3 hPa 0,0 l/m 3,8 km/h (1 Bft) S 187 4,4 C 5,6 C 10,9 km/h (2 Bft) 100 %
27.11.2022 12:50 5,6 C 92 % 1020,4 hPa 0,0 l/m 3,3 km/h (1 Bft) S-SO 161 4,4 C 5,6 C 13,0 km/h (3 Bft) 99 %
27.11.2022 12:40 5,6 C 92 % 1020,5 hPa 0,2 l/m 2,4 km/h (1 Bft) S 171 4,4 C 5,6 C 10,9 km/h (2 Bft) 100 %
27.11.2022 12:30 5,6 C 91 % 1020,7 hPa 0,0 l/m 2,3 km/h (1 Bft) S 180 4,2 C 5,6 C 10,9 km/h (2 Bft) 99 %
27.11.2022 12:20 5,6 C 91 % 1020,9 hPa 0,0 l/m 2,1 km/h (1 Bft) S-SO 162 4,2 C 5,6 C 10,9 km/h (2 Bft) 99 %
27.11.2022 12:10 5,7 C 90 % 1021,1 hPa 0,2 l/m 1,8 km/h (1 Bft) SO 143 4,2 C 5,7 C 8,7 km/h (2 Bft) 100 %
27.11.2022 12:01 5,7 C 90 % 1021,2 hPa 0,0 l/m 1,9 km/h (1 Bft) S 189 4,2 C 5,7 C 8,7 km/h (2 Bft) 99 %
27.11.2022 11:50 5,8 C 88 % 1021,3 hPa 0,0 l/m 3,4 km/h (1 Bft) S 170 4,0 C 5,8 C 10,9 km/h (2 Bft) 100 %
27.11.2022 11:40 5,8 C 87 % 1021,3 hPa 0,2 l/m 4,7 km/h (1 Bft) S-SO 164 3,8 C 5,1 C 17,4 km/h (3 Bft) 100 %
27.11.2022 11:30 5,9 C 86 % 1021,5 hPa 0,0 l/m 3,9 km/h (1 Bft) S 169 3,7 C 5,9 C 13,0 km/h (3 Bft) 99 %
27.11.2022 11:20 5,9 C 85 % 1021,6 hPa 0,0 l/m 5,3 km/h (1 Bft) S 181 3,6 C 5,0 C 15,2 km/h (3 Bft) 100 %
27.11.2022 11:10 5,9 C 85 % 1021,7 hPa 0,0 l/m 5,3 km/h (1 Bft) S 169 3,6 C 5,0 C 15,2 km/h (3 Bft) 98 %
27.11.2022 11:00 5,8 C 85 % 1021,7 hPa 0,0 l/m 5,4 km/h (1 Bft) S-SW 201 3,5 C 4,8 C 15,2 km/h (3 Bft) 99 %
27.11.2022 10:50 5,8 C 86 % 1021,6 hPa 0,0 l/m 5,2 km/h (1 Bft) S-SW 196 3,6 C 4,9 C 17,4 km/h (3 Bft) 100 %
27.11.2022 10:40 5,7 C 86 % 1021,7 hPa 0,0 l/m 6,4 km/h (2 Bft) S 182 3,5 C 4,4 C 17,4 km/h (3 Bft) 100 %
27.11.2022 10:30 5,5 C 87 % 1021,8 hPa 0,0 l/m 6,7 km/h (2 Bft) S-SW 198 3,5 C 4,1 C 19,6 km/h (3 Bft) 100 %
27.11.2022 10:20 5,4 C 87 % 1021,7 hPa 0,0 l/m 7,3 km/h (2 Bft) S-SW 198 3,4 C 3,8 C 19,6 km/h (3 Bft) 99 %
27.11.2022 10:10 5,3 C 88 % 1021,6 hPa 0,0 l/m 6,7 km/h (2 Bft) S 184 3,5 C 3,8 C 15,2 km/h (3 Bft) 100 %
27.11.2022 10:00 5,1 C 88 % 1021,5 hPa 0,0 l/m 6,2 km/h (2 Bft) SW 223 3,3 C 3,8 C 28,2 km/h (4 Bft) 100 %
27.11.2022 09:50 4,9 C 89 % 1021,5 hPa 0,0 l/m 7,0 km/h (2 Bft) S-SO 161 3,2 C 3,3 C 23,9 km/h (4 Bft) 99 %
27.11.2022 09:40 4,8 C 89 % 1021,5 hPa 0,0 l/m 6,2 km/h (2 Bft) S 184 3,1 C 3,4 C 21,7 km/h (4 Bft) 98 %
27.11.2022 09:30 4,7 C 90 % 1021,7 hPa 0,0 l/m 3,9 km/h (1 Bft) S-SO 163 3,2 C 4,7 C 13,0 km/h (3 Bft) 99 %
27.11.2022 09:20 4,6 C 90 % 1021,6 hPa 0,0 l/m 4,6 km/h (1 Bft) SW 217 3,1 C 3,8 C 13,0 km/h (3 Bft) 100 %
27.11.2022 09:10 4,6 C 90 % 1021,9 hPa 0,0 l/m 3,4 km/h (1 Bft) S-SO 159 3,1 C 4,6 C 13,0 km/h (3 Bft) 98 %
27.11.2022 09:00 4,6 C 90 % 1022,4 hPa 0,0 l/m 5,0 km/h (1 Bft) S-SO 155 3,1 C 3,6 C 17,4 km/h (3 Bft) 100 %
27.11.2022 08:50 4,6 C 90 % 1022,4 hPa 0,0 l/m 4,7 km/h (1 Bft) S 176 3,1 C 3,8 C 17,4 km/h (3 Bft) 99 %
27.11.2022 08:40 4,6 C 91 % 1022,1 hPa 0,0 l/m 4,4 km/h (1 Bft) S-SW 202 3,3 C 4,6 C 15,2 km/h (3 Bft) 98 %
27.11.2022 08:30 4,6 C 91 % 1022,3 hPa 0,0 l/m 6,2 km/h (2 Bft) S 185 3,3 C 3,2 C 17,4 km/h (3 Bft) 99 %
27.11.2022 08:20 4,6 C 91 % 1022,4 hPa 0,0 l/m 5,1 km/h (1 Bft) SO 146 3,3 C 3,6 C 13,0 km/h (3 Bft) 99 %
27.11.2022 08:10 4,6 C 91 % 1022,5 hPa 0,0 l/m 6,7 km/h (2 Bft) S 169 3,3 C 3,0 C 19,6 km/h (3 Bft) 98 %
27.11.2022 08:00 4,6 C 91 % 1022,5 hPa 0,0 l/m 6,4 km/h (2 Bft) S-SO 167 3,3 C 3,1 C 19,6 km/h (3 Bft) 100 %
27.11.2022 07:50 4,6 C 91 % 1022,6 hPa 0,0 l/m 6,4 km/h (2 Bft) S 173 3,3 C 3,1 C 19,6 km/h (3 Bft) 98 %
27.11.2022 07:40 4,6 C 91 % 1022,6 hPa 0,0 l/m 6,2 km/h (2 Bft) S 186 3,3 C 3,2 C 23,9 km/h (4 Bft) 99 %
27.11.2022 07:30 4,6 C 92 % 1022,8 hPa 0,0 l/m 7,6 km/h (2 Bft) S 174 3,4 C 2,8 C 19,6 km/h (3 Bft) 99 %
27.11.2022 07:20 4,6 C 92 % 1022,9 hPa 0,0 l/m 7,0 km/h (2 Bft) S 184 3,4 C 2,9 C 23,9 km/h (4 Bft) 100 %
27.11.2022 07:10 4,6 C 92 % 1022,9 hPa 0,0 l/m 6,8 km/h (2 Bft) SW 214 3,4 C 3,0 C 19,6 km/h (3 Bft) 99 %
27.11.2022 07:00 4,6 C 92 % 1023,0 hPa 0,0 l/m 5,3 km/h (1 Bft) SW 219 3,4 C 3,5 C 15,2 km/h (3 Bft) 100 %
27.11.2022 06:50 4,7 C 92 % 1023,1 hPa 0,0 l/m 7,5 km/h (2 Bft) S 186 3,5 C 2,9 C 21,7 km/h (4 Bft) 100 %
27.11.2022 06:40 4,7 C 93 % 1023,0 hPa 0,0 l/m 7,4 km/h (2 Bft) O-SO 116 3,7 C 2,9 C 17,4 km/h (3 Bft) 99 %
27.11.2022 06:30 4,7 C 93 % 1023,2 hPa 0,0 l/m 8,3 km/h (2 Bft) S-SW 194 3,7 C 2,7 C 21,7 km/h (4 Bft) 99 %
27.11.2022 06:20 4,7 C 93 % 1023,3 hPa 0,0 l/m 7,9 km/h (2 Bft) S 178 3,7 C 2,8 C 21,7 km/h (4 Bft) 99 %
27.11.2022 06:10 4,7 C 94 % 1023,2 hPa 0,0 l/m 7,7 km/h (2 Bft) SO 146 3,8 C 2,9 C 21,7 km/h (4 Bft) 99 %
27.11.2022 06:00 4,7 C 94 % 1023,3 hPa 0,0 l/m 7,0 km/h (2 Bft) S 179 3,8 C 3,1 C 21,7 km/h (4 Bft) 98 %
27.11.2022 05:50 4,7 C 94 % 1023,3 hPa 0,0 l/m 7,9 km/h (2 Bft) S-SW 199 3,8 C 2,8 C 17,4 km/h (3 Bft) 98 %
27.11.2022 05:40 4,7 C 94 % 1023,4 hPa 0,0 l/m 6,1 km/h (2 Bft) SO 141 3,8 C 3,3 C 19,6 km/h (3 Bft) 98 %
27.11.2022 05:30 4,7 C 94 % 1023,4 hPa 0,0 l/m 7,6 km/h (2 Bft) S-SW 207 3,8 C 2,9 C 23,9 km/h (4 Bft) 99 %
27.11.2022 05:20 4,7 C 94 % 1023,6 hPa 0,0 l/m 7,6 km/h (2 Bft) S 188 3,8 C 2,9 C 17,4 km/h (3 Bft) 100 %
27.11.2022 05:10 4,7 C 94 % 1023,9 hPa 0,0 l/m 7,7 km/h (2 Bft) S-SW 196 3,8 C 2,9 C 19,6 km/h (3 Bft) 98 %
27.11.2022 05:00 4,7 C 94 % 1024,0 hPa 0,0 l/m 5,6 km/h (1 Bft) S 178 3,8 C 3,5 C 19,6 km/h (3 Bft) 100 %
27.11.2022 04:50 4,7 C 95 % 1023,9 hPa 0,0 l/m 7,6 km/h (2 Bft) S 173 4,0 C 2,9 C 23,9 km/h (4 Bft) 97 %
27.11.2022 04:40 4,7 C 95 % 1024,0 hPa 0,0 l/m 9,3 km/h (2 Bft) S-SO 153 4,0 C 2,5 C 26,1 km/h (4 Bft) 100 %
27.11.2022 04:30 4,7 C 95 % 1024,1 hPa 0,0 l/m 7,7 km/h (2 Bft) S-SO 155 4,0 C 2,9 C 26,1 km/h (4 Bft) 100 %
27.11.2022 04:20 4,7 C 95 % 1024,1 hPa 0,0 l/m 9,6 km/h (2 Bft) SO 124 4,0 C 2,4 C 26,1 km/h (4 Bft) 99 %
27.11.2022 04:10 4,7 C 95 % 1024,1 hPa 0,0 l/m 6,3 km/h (2 Bft) SO 132 4,0 C 3,3 C 19,6 km/h (3 Bft) 100 %
27.11.2022 04:00 4,7 C 95 % 1024,2 hPa 0,0 l/m 6,2 km/h (2 Bft) S 185 4,0 C 3,3 C 17,4 km/h (3 Bft) 100 %
27.11.2022 03:50 4,7 C 95 % 1024,4 hPa 0,0 l/m 7,2 km/h (2 Bft) SO 144 4,0 C 3,0 C 23,9 km/h (4 Bft) 98 %
27.11.2022 03:40 4,8 C 95 % 1024,6 hPa 0,0 l/m 7,5 km/h (2 Bft) S-SW 211 4,1 C 3,0 C 19,6 km/h (3 Bft) 99 %
27.11.2022 03:30 4,8 C 95 % 1024,8 hPa 0,0 l/m 7,4 km/h (2 Bft) S 180 4,1 C 3,1 C 23,9 km/h (4 Bft) 98 %
27.11.2022 03:20 4,8 C 95 % 1024,9 hPa 0,0 l/m 7,3 km/h (2 Bft) S-SW 205 4,1 C 3,1 C 19,6 km/h (3 Bft) 100 %
27.11.2022 03:10 4,8 C 95 % 1025,0 hPa 0,0 l/m 6,7 km/h (2 Bft) S 181 4,1 C 3,3 C 17,4 km/h (3 Bft) 99 %
27.11.2022 03:00 4,9 C 95 % 1025,1 hPa 0,0 l/m 6,9 km/h (2 Bft) S 173 4,2 C 3,3 C 17,4 km/h (3 Bft) 98 %
27.11.2022 02:50 4,9 C 95 % 1025,2 hPa 0,0 l/m 6,9 km/h (2 Bft) S 177 4,2 C 3,3 C 19,6 km/h (3 Bft) 99 %
27.11.2022 02:40 5,0 C 96 % 1025,2 hPa 0,0 l/m 5,5 km/h (1 Bft) S 176 4,4 C 3,9 C 15,2 km/h (3 Bft) 99 %
27.11.2022 02:30 5,0 C 95 % 1025,3 hPa 0,0 l/m 6,0 km/h (2 Bft) S-SO 158 4,3 C 3,7 C 15,2 km/h (3 Bft) 100 %
27.11.2022 02:20 5,1 C 96 % 1025,3 hPa 0,0 l/m 5,8 km/h (2 Bft) S-SO 150 4,5 C 3,9 C 15,2 km/h (3 Bft) 100 %
27.11.2022 02:10 5,2 C 96 % 1025,4 hPa 0,2 l/m 3,7 km/h (1 Bft) SW 236 4,6 C 5,2 C 13,0 km/h (3 Bft) 100 %
27.11.2022 02:00 5,2 C 96 % 1025,5 hPa 0,0 l/m 3,9 km/h (1 Bft) S-SO 166 4,6 C 5,2 C 13,0 km/h (3 Bft) 99 %
27.11.2022 01:51 5,3 C 96 % 1025,4 hPa 0,0 l/m 5,8 km/h (2 Bft) S 171 4,7 C 4,1 C 13,0 km/h (3 Bft) 99 %
27.11.2022 01:40 5,3 C 96 % 1025,4 hPa 0,0 l/m 5,6 km/h (1 Bft) S 186 4,7 C 4,2 C 15,2 km/h (3 Bft) 99 %
27.11.2022 01:30 5,4 C 96 % 1025,5 hPa 0,0 l/m 5,9 km/h (2 Bft) S 172 4,8 C 4,2 C 19,6 km/h (3 Bft) 98 %
27.11.2022 01:20 5,5 C 96 % 1025,5 hPa 0,0 l/m 4,9 km/h (1 Bft) SO 144 4,9 C 4,7 C 15,2 km/h (3 Bft) 100 %
27.11.2022 01:10 5,6 C 96 % 1025,6 hPa 0,0 l/m 6,2 km/h (2 Bft) S 171 5,0 C 4,3 C 15,2 km/h (3 Bft) 99 %
27.11.2022 01:00 5,7 C 96 % 1025,7 hPa 0,0 l/m 4,8 km/h (1 Bft) S 176 5,1 C 5,0 C 13,0 km/h (3 Bft) 100 %
27.11.2022 00:50 5,7 C 96 % 1025,8 hPa 0,0 l/m 5,5 km/h (1 Bft) S 190 5,1 C 4,7 C 17,4 km/h (3 Bft) 100 %
27.11.2022 00:40 5,8 C 96 % 1025,9 hPa 0,0 l/m 5,7 km/h (1 Bft) S 175 5,2 C 4,7 C 17,4 km/h (3 Bft) 100 %
27.11.2022 00:30 5,8 C 96 % 1026,0 hPa 0,0 l/m 4,5 km/h (1 Bft) S 181 5,2 C 5,8 C 13,0 km/h (3 Bft) 100 %
27.11.2022 00:20 5,9 C 96 % 1026,2 hPa 0,0 l/m 5,3 km/h (1 Bft) SW 217 5,3 C 5,0 C 17,4 km/h (3 Bft) 100 %
27.11.2022 00:10 6,1 C 96 % 1026,3 hPa 0,0 l/m 5,2 km/h (1 Bft) S 182 5,5 C 5,3 C 15,2 km/h (3 Bft) 99 %
27.11.2022 00:00 6,2 C 96 % 1026,4 hPa 0,0 l/m 4,7 km/h (1 Bft) S 184 5,6 C 5,6 C 15,2 km/h (3 Bft) 99 %
26.11.2022 23:50 6,3 C 96 % 1026,4 hPa 0,0 l/m 3,4 km/h (1 Bft) S-SO 158 5,7 C 6,3 C 13,0 km/h (3 Bft) 99 %
26.11.2022 23:40 6,4 C 96 % 1026,4 hPa 0,0 l/m 3,1 km/h (1 Bft) S 180 5,8 C 6,4 C 10,9 km/h (2 Bft) 100 %
26.11.2022 23:30 6,6 C 96 % 1026,5 hPa 0,0 l/m 3,7 km/h (1 Bft) S 173 6,0 C 6,6 C 10,9 km/h (2 Bft) 99 %
26.11.2022 23:20 6,6 C 96 % 1026,7 hPa 0,0 l/m 4,9 km/h (1 Bft) S 180 6,0 C 5,9 C 15,2 km/h (3 Bft) 100 %
26.11.2022 23:10 6,7 C 96 % 1026,8 hPa 0,0 l/m 2,7 km/h (1 Bft) S-SW 200 6,1 C 6,7 C 8,7 km/h (2 Bft) 100 %
26.11.2022 23:00 6,7 C 96 % 1026,9 hPa 0,0 l/m 5,9 km/h (2 Bft) O-SO 114 6,1 C 5,7 C 15,2 km/h (3 Bft) 100 %
26.11.2022 22:50 6,7 C 96 % 1027,1 hPa 0,0 l/m 5,1 km/h (1 Bft) S-SW 193 6,1 C 6,0 C 13,0 km/h (3 Bft) 99 %
26.11.2022 22:40 6,7 C 96 % 1027,3 hPa 0,0 l/m 5,3 km/h (1 Bft) S 190 6,1 C 5,9 C 17,4 km/h (3 Bft) 100 %
26.11.2022 22:30 6,7 C 97 % 1027,5 hPa 0,0 l/m 5,7 km/h (1 Bft) S-SW 194 6,3 C 5,8 C 13,0 km/h (3 Bft) 100 %
26.11.2022 22:20 6,7 C 97 % 1027,6 hPa 0,0 l/m 6,7 km/h (2 Bft) S 178 6,3 C 5,5 C 15,2 km/h (3 Bft) 100 %
26.11.2022 22:10 6,7 C 97 % 1027,5 hPa 0,0 l/m 7,1 km/h (2 Bft) S-SW 196 6,3 C 5,4 C 15,2 km/h (3 Bft) 99 %
26.11.2022 22:00 6,7 C 97 % 1027,6 hPa 0,0 l/m 5,9 km/h (2 Bft) SW 217 6,3 C 5,7 C 13,0 km/h (3 Bft) 98 %
26.11.2022 21:50 6,7 C 97 % 1027,6 hPa 0,0 l/m 5,7 km/h (1 Bft) S 177 6,3 C 5,8 C 13,0 km/h (3 Bft) 100 %
26.11.2022 21:40 6,7 C 96 % 1027,3 hPa 0,0 l/m 5,0 km/h (1 Bft) S-SW 196 6,1 C 6,0 C 13,0 km/h (3 Bft) 100 %
26.11.2022 21:30 6,7 C 97 % 1027,3 hPa 0,0 l/m 6,9 km/h (2 Bft) S 191 6,3 C 5,4 C 15,2 km/h (3 Bft) 100 %
26.11.2022 21:20 6,7 C 97 % 1026,9 hPa 0,0 l/m 5,5 km/h (1 Bft) S-SW 199 6,3 C 5,8 C 15,2 km/h (3 Bft) 100 %
26.11.2022 21:10 6,8 C 97 % 1026,9 hPa 0,0 l/m 5,6 km/h (1 Bft) S-SW 194 6,4 C 5,9 C 17,4 km/h (3 Bft) 99 %
26.11.2022 21:00 6,8 C 97 % 1026,8 hPa 0,0 l/m 6,2 km/h (2 Bft) S-SW 213 6,4 C 5,7 C 15,2 km/h (3 Bft) 99 %
26.11.2022 20:50 6,9 C 97 % 1026,9 hPa 0,0 l/m 6,4 km/h (2 Bft) S-SW 203 6,5 C 5,8 C 15,2 km/h (3 Bft) 99 %
26.11.2022 20:40 6,8 C 97 % 1027,0 hPa 0,0 l/m 8,3 km/h (2 Bft) S 177 6,4 C 5,2 C 17,4 km/h (3 Bft) 99 %
26.11.2022 20:30 6,8 C 97 % 1027,1 hPa 0,0 l/m 5,3 km/h (1 Bft) S-SO 159 6,4 C 6,0 C 13,0 km/h (3 Bft) 100 %
26.11.2022 20:20 6,8 C 97 % 1027,1 hPa 0,0 l/m 4,3 km/h (1 Bft) S 181 6,4 C 6,8 C 13,0 km/h (3 Bft) 100 %
26.11.2022 20:10 6,8 C 97 % 1027,2 hPa 0,0 l/m 4,6 km/h (1 Bft) S 186 6,4 C 6,3 C 13,0 km/h (3 Bft) 100 %
26.11.2022 20:00 6,8 C 97 % 1027,2 hPa 0,0 l/m 4,1 km/h (1 Bft) S 190 6,4 C 6,8 C 10,9 km/h (2 Bft) 100 %
26.11.2022 19:50 6,9 C 97 % 1027,3 hPa 0,0 l/m 4,3 km/h (1 Bft) S 187 6,5 C 6,9 C 13,0 km/h (3 Bft) 99 %
26.11.2022 19:40 7,0 C 97 % 1027,4 hPa 0,0 l/m 5,9 km/h (2 Bft) S 190 6,6 C 6,1 C 13,0 km/h (3 Bft) 100 %
26.11.2022 19:30 7,1 C 97 % 1027,5 hPa 0,0 l/m 5,8 km/h (2 Bft) S 189 6,7 C 6,2 C 10,9 km/h (2 Bft) 100 %
26.11.2022 19:20 7,2 C 97 % 1027,5 hPa 0,0 l/m 5,5 km/h (1 Bft) S-SW 195 6,8 C 6,4 C 10,9 km/h (2 Bft) 100 %
26.11.2022 19:10 7,3 C 97 % 1027,5 hPa 0,0 l/m 7,4 km/h (2 Bft) SW 217 6,9 C 6,0 C 13,0 km/h (3 Bft) 100 %
26.11.2022 19:00 7,3 C 97 % 1027,6 hPa 0,0 l/m 7,0 km/h (2 Bft) S-SW 206 6,9 C 6,1 C 15,2 km/h (3 Bft) 100 %
26.11.2022 18:50 7,5 C 97 % 1027,5 hPa 0,0 l/m 8,3 km/h (2 Bft) S-SW 207 7,1 C 6,0 C 17,4 km/h (3 Bft) 99 %
26.11.2022 18:40 7,6 C 97 % 1027,6 hPa 0,0 l/m 8,4 km/h (2 Bft) S-SW 192 7,2 C 6,1 C 19,6 km/h (3 Bft) 99 %
26.11.2022 18:30 7,7 C 97 % 1027,7 hPa 0,0 l/m 7,2 km/h (2 Bft) S-SW 200 7,3 C 6,5 C 13,0 km/h (3 Bft) 100 %
26.11.2022 18:20 7,7 C 97 % 1027,6 hPa 0,0 l/m 7,3 km/h (2 Bft) S-SW 204 7,3 C 6,5 C 15,2 km/h (3 Bft) 100 %
26.11.2022 18:10 7,8 C 97 % 1027,7 hPa 0,0 l/m 6,2 km/h (2 Bft) S 191 7,4 C 6,9 C 13,0 km/h (3 Bft) 100 %
26.11.2022 18:00 7,8 C 97 % 1027,7 hPa 0,0 l/m 6,5 km/h (2 Bft) S-SW 206 7,4 C 6,8 C 15,2 km/h (3 Bft) 100 %
26.11.2022 17:50 7,8 C 97 % 1027,7 hPa 0,0 l/m 5,7 km/h (1 Bft) SW 215 7,4 C 7,0 C 15,2 km/h (3 Bft) 98 %
26.11.2022 17:40 7,8 C 97 % 1027,7 hPa 0,0 l/m 5,9 km/h (2 Bft) S-SW 194 7,4 C 7,0 C 13,0 km/h (3 Bft) 98 %
26.11.2022 17:30 7,8 C 97 % 1027,6 hPa 0,0 l/m 4,3 km/h (1 Bft) S 186 7,4 C 7,8 C 13,0 km/h (3 Bft) 99 %
26.11.2022 17:20 7,8 C 97 % 1027,6 hPa 0,0 l/m 5,2 km/h (1 Bft) S-SW 201 7,4 C 7,2 C 13,0 km/h (3 Bft) 100 %
26.11.2022 17:10 7,8 C 97 % 1027,7 hPa 0,0 l/m 5,5 km/h (1 Bft) SW 223 7,4 C 7,1 C 10,9 km/h (2 Bft) 99 %
26.11.2022 17:00 7,8 C 97 % 1027,7 hPa 0,0 l/m 5,2 km/h (1 Bft) S-SW 193 7,4 C 7,2 C 10,9 km/h (2 Bft) 100 %
26.11.2022 16:50 7,8 C 97 % 1027,7 hPa 0,0 l/m 5,1 km/h (1 Bft) S-SW 203 7,4 C 7,2 C 10,9 km/h (2 Bft) 99 %
26.11.2022 16:40 7,8 C 97 % 1027,7 hPa 0,0 l/m 4,9 km/h (1 Bft) S-SW 192 7,4 C 7,3 C 10,9 km/h (2 Bft) 100 %
26.11.2022 16:30 7,9 C 97 % 1027,7 hPa 0,0 l/m 6,5 km/h (2 Bft) S-SW 211 7,5 C 6,9 C 15,2 km/h (3 Bft) 100 %
26.11.2022 16:20 7,9 C 97 % 1027,7 hPa 0,0 l/m 6,2 km/h (2 Bft) S-SW 213 7,5 C 7,0 C 13,0 km/h (3 Bft) 100 %
26.11.2022 16:10 7,9 C 97 % 1027,5 hPa 0,0 l/m 6,0 km/h (2 Bft) S-SO 155 7,5 C 7,1 C 15,2 km/h (3 Bft) 99 %
26.11.2022 16:00 7,9 C 97 % 1027,5 hPa 0,0 l/m 6,5 km/h (2 Bft) S 182 7,5 C 6,9 C 13,0 km/h (3 Bft) 99 %
_ Min-Zeit 08:10 11:00 15:40 - 12:10 - - 08:50 04:20 23:10 04:50
Minimum _ 4,5 C 85 % 1017,8 hPa - 1,8 km/h (1 Bft) - - 3,1 C 2,4 C 8,7 km/h (2 Bft) 97 %
_ Max-Zeit 16:00 16:00 16:20 02:10 04:20 - - 16:00 17:30 10:00 16:20
Maximum _ 7,9 C 97 % 1027,7 hPa 0,2 l/m 9,6 km/h
SO (2 Bft)
- - 7,5 C 7,8 C 28,2 km/h
S-SW (4 Bft)
100 %
Durchschnitt _ 6,0 C 94 % 1024,4 hPa #1,2 l/m 5,5 km/h (1 Bft) S - 5,2 C 5,1 C 15,6 km/h (3 Bft) 99 %